Location: Bernay
(48.6766°N, 2.9386°E)
Time: 22:45:46
(UTC+00:00)

COSMOS 2455 - Visible Passes

Search period start: 18 April 2026 00:00
Search period end: 28 April 2026 00:00
Orbit: 900 x 908 km, 67.1° (Epoch: 18 April)

Date Brightness Start Highest point End Pass type
(mag) Time Alt. Az. Time Alt. Az. Time Alt. Az.
18 Apr 5.2 00:49:12 10° WNW 00:49:19 10° WNW 00:49:19 10° WNW visible
18 Apr 5.0 19:33:05 10° NNW 19:36:36 16° NNE 19:40:07 10° NE visible
18 Apr 3.8 21:18:45 10° NNW 21:24:20 38° NE 21:26:41 28° E visible
18 Apr 3.3 23:04:39 10° NW 23:09:47 51° W 23:09:47 51° W visible
19 Apr 4.9 19:36:49 10° NNW 19:40:43 17° NNE 19:44:37 10° ENE visible
19 Apr 3.5 21:22:25 10° NNW 21:28:13 46° NE 21:30:18 34° E visible
19 Apr 3.6 23:08:31 10° NW 23:13:25 40° W 23:13:25 40° W visible
20 Apr 4.7 19:40:32 10° NNW 19:44:49 19° NNE 19:49:04 10° ENE visible
20 Apr 3.1 21:26:05 10° NNW 21:32:03 57° NE 21:33:56 41° ESE visible
20 Apr 4.0 23:12:28 10° NW 23:17:03 31° W 23:17:03 31° W visible
21 Apr 4.5 19:44:13 10° NNW 19:48:51 22° NNE 19:53:29 10° E visible
21 Apr 2.9 21:29:48 10° NNW 21:35:50 72° NE 21:37:36 47° ESE visible
21 Apr 4.3 23:16:32 10° NW 23:20:43 24° W 23:20:43 24° W visible
22 Apr 4.3 19:47:52 10° NNW 19:52:52 26° NNE 19:57:50 10° E visible
22 Apr 2.8 21:33:32 10° NW 21:39:35 90° NE 21:41:17 50° SE visible
22 Apr 4.6 23:20:48 10° WNW 23:24:25 18° W 23:24:25 18° W visible
23 Apr 4.1 19:51:33 10° NNW 19:56:50 31° NE 20:01:53 11° E visible
23 Apr 2.9 21:37:17 10° NW 21:43:17 72° WSW 21:45:01 47° S visible
23 Apr 4.9 23:25:27 10° WNW 23:28:09 13° W 23:28:09 13° W visible
24 Apr 3.8 19:55:12 10° NNW 20:00:46 37° NE 20:05:39 13° ESE visible
24 Apr 3.2 21:41:05 10° NW 21:46:57 56° WSW 21:48:46 40° S visible
25 Apr 3.5 19:58:53 10° NNW 20:04:39 45° NE 20:09:26 15° ESE visible
25 Apr 3.6 21:44:56 10° NW 21:50:35 43° WSW 21:52:34 32° SSW visible
26 Apr 3.2 20:02:33 10° NNW 20:08:30 55° NE 20:13:16 16° ESE visible
26 Apr 4.0 21:48:53 10° NW 21:54:09 33° WSW 21:56:24 25° SSW visible
27 Apr 2.9 20:06:15 10° NNW 20:12:17 70° NE 20:17:08 16° SE visible
27 Apr 4.4 21:52:56 10° NW 21:57:41 25° WSW 22:00:17 19° SW visible
